Location: College Park
(38.9810°N, 76.9370°W)
Time: 14:15:23

Tiangong 2 - Pass Details

Date: 14 March 2018
Orbit: 383 x 389 km, 42.8° (Epoch: 17 March)

Event Time Altitude Azimuth Distance (km) Brightness Sun altitude
Exits shadow 05:50:22 57° 197° (SSW) 458 1.2 -18.3°
Maximum altitude 05:50:44 64° 156° (SSE) 430 1.2 -18.2°
Drops below altitude 10° 05:53:54 10° 74° (ENE) 1,412 5.2 -17.6°
Sets 05:55:59 0° 71° (ENE) 2,269 6.7 -17.2°
